Theta_e
315 319 323 323 324 323 321 320 321 324 325 326 329 330 328 326 325 326 326 318 310 315 321 318 316 316 316 315 313 310 310 309 310 310 310 312 313 313 314 314 314 314 316 316 314 313 312 312 312 312 313 313 312 312 311 312 312 312 312 311 312 312 312 314 319 321 319 319 320 323 324 324 323 321 320 318 317 318 320 320 321 320 318 317 318 319
316 321 324 324 321 320 319 317 318 320 321 323 324 323 323 324 324 323 322 317 311 314 323 320 317 316 315 314 312 310 310 309 309 309 310 312 313 313 314 314 315 315 315 315 314 314 312 312 312 311 312 312 312 312 312 312 312 312 312 312 312 311 311 314 320 325 323 321 322 325 324 323 322 322 321 318 315 317 320 320 320 318 318 319 320 320
319 322 323 318 314 314 317 315 315 317 317 320 323 320 322 324 322 322 320 317 313 314 323 324 318 317 316 315 312 309 309 311 312 312 313 314 313 313 314 314 315 315 314 315 314 314 313 312 312 311 311 312 312 312 311 312 311 311 312 312 312 312 312 315 318 323 324 324 324 322 321 322 323 322 319 315 315 319 320 318 318 318 319 321 320 321
322 326 321 312 311 316 319 317 316 317 317 319 321 320 323 323 321 324 323 317 315 315 319 322 317 315 315 315 314 312 311 312 313 314 314 314 314 314 315 315 315 315 315 315 314 314 314 313 312 311 311 311 312 312 312 312 312 312 312 311 312 312 313 316 316 317 319 321 321 320 319 321 321 318 316 315 316 319 318 316 318 320 320 320 321 321
324 323 314 310 315 319 319 319 319 319 321 322 321 320 323 323 321 323 323 320 321 321 317 318 320 322 321 319 319 315 311 312 312 313 314 315 316 316 315 314 314 315 314 314 314 314 314 314 313 313 311 311 311 312 312 312 312 312 311 311 312 311 313 315 314 314 318 321 321 320 320 320 319 318 316 316 318 318 316 315 318 319 319 320 320 320
321 316 312 315 317 318 319 321 323 322 323 324 324 321 320 321 321 320 321 321 326 329 320 317 324 333 332 327 325 322 319 319 315 311 312 316 317 316 315 316 315 314 314 314 313 313 314 314 314 313 311 310 311 312 312 312 311 311 311 311 312 312 312 314 313 313 317 321 320 320 321 321 320 318 317 317 318 317 314 314 317 318 319 319 319 319
319 313 316 323 320 319 320 321 324 322 320 323 325 323 319 318 319 320 321 321 327 329 319 315 324 331 329 325 326 327 327 327 320 313 313 316 318 316 317 318 318 316 315 314 313 313 313 313 313 313 312 311 311 311 311 311 311 310 310 311 312 313 311 313 315 315 316 319 320 321 321 320 319 317 316 317 317 315 313 314 315 316 318 317 316 315
319 317 317 322 323 322 320 322 323 318 321 327 323 320 319 317 319 321 321 321 325 326 320 319 324 325 323 323 323 322 323 324 321 318 315 314 316 318 318 319 319 318 317 315 314 314 314 313 313 314 313 313 311 311 310 310 311 310 310 311 313 313 311 314 318 317 317 318 318 318 317 317 317 316 316 315 314 313 312 312 314 316 316 314 312 309
316 321 320 319 322 322 323 327 323 316 322 325 318 317 319 319 323 326 325 324 322 323 324 323 321 322 326 326 324 320 321 323 323 322 319 314 316 318 318 320 319 319 318 316 315 314 314 314 314 313 313 312 310 310 310 310 311 310 310 312 313 313 312 313 316 317 317 316 315 315 314 315 316 316 316 314 312 312 310 311 314 315 312 308 306 304
314 317 316 317 320 321 325 326 319 318 321 317 313 318 321 322 325 327 328 327 325 324 325 325 322 322 326 328 326 321 323 326 323 321 318 314 316 318 319 320 319 319 318 317 316 314 313 313 313 312 311 311 310 309 309 310 310 310 311 313 313 312 313 313 314 316 316 314 314 315 314 314 316 315 315 314 312 310 310 312 313 310 306 304 302 301
314 311 312 316 318 317 320 317 312 315 316 312 318 327 327 327 327 327 326 324 325 325 324 325 324 322 325 328 328 324 325 328 324 323 323 318 317 319 320 320 319 318 317 317 316 314 313 311 311 311 310 310 309 309 309 309 310 310 311 312 313 312 313 313 313 314 313 312 315 316 314 313 314 314 313 313 312 310 311 312 310 305 302 301 299 298
315 315 314 314 314 313 317 317 312 312 311 315 329 331 328 329 327 326 327 324 326 327 322 321 320 320 324 328 328 324 323 326 323 324 330 325 319 319 319 318 317 317 316 316 316 314 313 312 311 310 310 310 309 308 309 309 309 310 311 312 313 312 312 311 310 310 311 313 315 316 314 314 313 312 311 312 311 312 312 309 305 302 301 299 298 297
319 322 317 313 312 313 320 323 316 314 314 320 329 327 325 327 325 326 327 323 325 324 317 316 318 319 321 323 323 321 321 322 318 316 320 319 317 319 318 317 317 316 315 315 315 315 314 313 312 311 310 310 309 309 309 309 309 310 311 311 312 312 311 311 310 310 312 313 315 314 313 313 312 310 310 311 312 312 310 305 302 301 300 298 297 297
321 322 317 315 315 314 318 322 320 319 318 320 324 325 326 326 327 331 328 322 323 322 315 313 318 321 322 322 321 320 318 318 316 313 315 314 315 317 317 317 317 316 316 315 315 315 314 314 313 312 311 310 310 309 309 309 309 309 310 311 311 311 311 311 311 312 313 313 313 313 312 311 310 310 311 311 312 311 307 303 301 300 299 298 298 298
320 320 319 318 318 316 317 318 321 322 318 319 322 323 325 327 330 333 330 326 326 325 319 314 319 327 327 326 321 315 312 313 314 315 315 314 314 314 314 316 317 316 317 316 315 315 314 314 313 312 311 310 310 309 308 309 309 309 310 310 310 310 310 311 311 311 312 312 312 311 311 310 310 310 311 311 311 308 303 301 300 299 298 298 298 298
318 322 322 317 314 316 316 315 318 320 319 319 320 321 324 325 325 323 322 323 323 324 323 318 322 327 325 323 318 312 313 314 312 312 313 314 314 313 314 316 316 315 316 316 316 315 314 313 312 312 311 310 309 309 308 308 309 309 309 309 309 309 310 311 311 311 311 311 310 309 310 311 311 311 311 310 309 305 302 301 299 298 298 298 298 298
320 323 320 314 314 314 314 314 315 317 320 319 318 322 321 318 320 322 320 317 316 321 324 321 323 326 324 323 319 317 320 318 314 312 311 313 313 312 315 317 317 315 314 315 316 315 314 313 312 311 311 310 309 309 308 308 309 309 309 309 309 309 310 311 312 312 311 310 309 309 310 311 311 310 309 308 305 302 301 299 298 298 297 297 297 298
322 324 318 314 318 313 309 313 313 311 316 321 322 321 317 316 321 325 324 323 322 323 324 322 323 325 326 325 321 319 320 320 319 316 312 311 312 312 316 319 318 316 314 314 314 314 314 313 312 311 311 310 309 309 309 309 309 309 309 309 309 309 310 310 311 312 312 311 310 310 311 311 311 309 307 304 303 301 300 298 297 297 297 297 297 297
320 321 318 314 317 314 310 315 317 312 312 318 321 318 319 324 325 322 323 327 328 326 326 324 321 322 322 323 323 321 324 329 325 320 318 315 312 314 318 320 319 318 316 314 314 314 314 314 313 311 311 310 309 309 308 308 308 309 309 309 309 309 309 309 311 312 313 311 310 311 311 310 310 307 304 303 302 300 299 298 297 297 296 297 297 297
319 318 320 314 312 314 314 317 321 318 312 313 316 315 319 324 324 322 323 323 325 326 327 326 323 323 322 322 324 322 327 333 327 324 327 320 314 317 320 319 319 318 317 315 314 314 314 314 313 312 310 310 309 308 308 308 308 308 309 309 309 309 309 309 311 312 312 311 311 311 311 309 308 305 303 302 301 299 298 297 297 296 296 297 297 297
319 317 320 315 311 314 318 318 319 319 316 316 318 317 318 319 319 322 321 320 325 327 327 327 324 325 325 322 323 321 322 325 325 329 329 318 315 320 320 319 319 318 318 317 315 314 314 313 313 311 310 309 309 308 308 308 308 308 308 308 309 309 309 309 311 312 312 311 311 311 310 308 306 304 302 301 300 298 297 297 296 296 296 296 296 296
319 319 322 319 315 317 320 317 314 316 317 317 318 318 318 318 319 322 320 320 322 323 326 327 323 324 326 321 320 321 322 319 318 322 321 316 317 320 319 319 319 318 319 318 314 314 313 313 312 311 310 309 309 308 308 308 307 307 307 307 308 309 308 309 311 312 312 311 311 311 309 307 305 303 302 301 299 297 297 296 296 296 296 296 296 296
319 323 324 322 318 318 318 313 309 312 316 316 317 320 319 317 319 323 323 322 321 320 321 322 323 323 322 321 320 318 318 315 311 311 314 317 319 320 319 320 319 318 319 318 315 314 313 312 312 310 310 309 309 308 308 307 307 307 306 306 308 309 308 309 310 312 312 311 311 311 309 306 304 302 301 300 298 297 296 296 296 296 296 296 296 296
317 322 322 321 321 320 319 315 310 311 314 315 317 320 319 317 318 322 322 321 322 323 320 321 324 321 317 318 314 308 308 309 307 309 313 317 319 319 319 320 319 318 318 317 316 314 312 312 311 310 310 309 309 308 307 307 307 306 306 306 307 308 308 309 311 312 312 312 311 311 309 306 303 301 300 299 298 297 296 296 296 295 295 295 295 295
317 321 323 323 323 323 321 320 316 313 314 317 320 319 317 318 318 319 320 319 322 324 322 323 325 319 319 321 313 309 311 311 308 309 312 316 319 319 319 319 319 319 318 318 316 314 313 312 312 311 310 309 309 308 308 307 307 306 306 305 306 307 308 310 311 311 312 312 312 311 310 307 303 301 300 299 297 296 296 295 295 295 295 295 295 295
318 320 321 321 322 321 321 322 321 317 314 317 320 318 316 318 318 318 319 320 321 322 321 323 323 320 322 323 317 316 319 317 313 311 312 315 318 318 319 319 319 319 319 318 317 316 314 313 313 312 311 310 309 308 308 308 307 306 306 305 305 306 308 309 310 311 311 311 311 311 310 307 304 302 300 299 297 296 295 295 295 295 295 294 294 294
322 321 318 319 320 319 319 321 322 320 316 317 319 318 316 317 317 318 320 320 321 322 321 321 320 321 323 322 321 322 323 324 320 313 313 318 318 317 319 319 318 319 319 318 317 316 315 315 314 313 312 311 310 308 308 308 307 307 306 305 305 305 306 308 310 310 310 310 311 311 310 308 305 303 301 299 297 296 295 295 294 294 294 294 294 294
325 322 318 319 320 318 318 321 321 320 318 318 318 317 317 316 316 318 319 320 322 323 322 321 320 321 321 320 323 326 326 327 320 310 313 319 318 318 319 318 318 319 318 318 318 317 317 316 316 315 314 312 311 309 308 308 308 307 306 306 305 305 305 307 309 310 310 310 311 311 310 308 305 303 301 299 297 295 295 294 294 294 294 294 294 294
323 322 319 320 320 318 317 320 320 319 319 318 318 317 317 316 316 317 318 319 321 322 321 321 322 323 320 318 321 321 319 321 318 314 316 318 317 318 318 317 318 318 317 318 318 318 317 317 317 316 315 313 311 310 309 308 308 308 308 307 306 305 305 306 307 309 310 310 310 311 310 308 305 303 301 300 298 296 295 294 294 294 293 293 294 294
319 322 321 320 319 319 318 319 319 319 318 319 318 317 316 316 316 317 317 317 318 320 320 320 322 322 319 319 321 318 316 316 315 315 316 315 316 317 317 317 318 318 318 318 318 318 317 317 317 316 314 313 313 312 311 310 310 309 309 308 306 305 305 305 307 308 309 310 310 311 310 307 304 303 302 300 298 296 295 294 294 294 293 293 293 293
315 321 323 320 319 320 318 319 319 319 319 320 318 317 316 316 316 316 316 317 317 318 318 318 320 320 316 316 317 316 315 315 315 314 315 315 316 316 316 316 317 318 318 318 318 318 317 317 317 316 315 315 314 313 312 311 310 310 309 308 307 306 305 305 306 307 309 310 310 311 310 306 304 303 301 300 298 296 295 294 293 293 293 293 293 293
315 320 322 321 320 321 319 320 319 317 317 318 319 318 316 316 316 315 316 316 316 317 318 317 318 318 316 317 316 315 314 314 312 313 314 315 316 316 315 316 316 317 317 317 318 318 318 317 317 316 316 316 316 315 313 312 311 310 309 308 307 306 305 305 305 307 308 310 310 311 309 306 303 302 301 300 298 296 295 294 293 293 293 293 292 292
317 319 320 320 321 320 320 322 319 316 317 318 318 317 316 315 315 315 316 316 315 316 318 318 318 317 317 318 318 317 317 314 312 313 314 315 315 316 315 315 316 316 316 317 317 317 317 317 317 317 316 316 315 315 313 311 310 310 309 308 306 305 304 304 305 306 308 309 310 310 308 305 303 302 301 300 298 296 295 294 293 293 293 292 292 292
317 318 318 319 320 320 320 320 318 317 320 320 319 318 317 316 316 316 316 315 314 315 316 317 317 317 317 318 317 317 318 316 313 314 315 315 314 315 315 315 316 316 316 316 316 316 316 316 316 316 316 316 315 314 312 310 309 308 307 305 304 304 304 304 305 306 307 309 309 308 306 304 302 302 301 300 298 297 295 294 294 293 292 291 291 291
315 316 317 318 319 320 319 319 320 322 322 321 324 324 320 317 316 316 317 315 314 314 315 315 316 316 316 316 315 314 314 314 314 315 314 313 314 314 315 315 316 316 315 315 315 315 315 315 316 316 315 315 314 312 311 309 308 307 305 303 303 302 302 303 304 305 307 307 307 306 305 303 302 301 301 300 298 297 296 295 294 293 292 291 291 291
316 315 315 317 318 318 319 319 322 324 320 321 324 321 317 318 318 316 317 317 315 314 315 315 314 315 314 313 313 314 313 313 313 313 312 313 314 314 314 315 315 315 315 315 314 314 314 314 315 315 314 314 312 311 310 308 307 306 304 302 302 301 301 302 303 304 305 306 306 305 304 303 302 301 301 300 299 298 297 296 295 294 292 291 291 291
316 315 314 315 317 318 319 320 321 321 321 322 323 318 315 318 320 318 319 319 316 314 314 314 314 314 314 312 312 313 312 312 312 312 312 313 314 314 314 314 314 314 314 314 313 313 313 313 314 313 312 311 310 309 308 307 306 304 302 301 301 300 300 300 301 303 304 304 304 304 303 303 302 301 301 300 299 299 297 296 295 294 293 292 291 291
316 315 315 316 317 317 319 320 320 321 321 320 321 319 315 314 316 318 319 320 318 315 313 314 315 315 314 313 312 311 311 313 314 313 312 313 313 313 313 313 313 313 313 313 312 311 311 312 312 311 311 310 309 307 306 305 304 303 301 301 300 300 300 300 301 302 302 303 303 303 303 302 301 300 300 299 299 298 298 297 296 295 294 292 291 291
314 315 315 316 316 316 318 320 320 321 321 320 322 320 314 311 313 315 318 320 319 314 311 313 315 315 313 312 311 311 313 315 316 313 311 312 312 312 312 312 312 312 312 311 311 310 309 309 309 309 308 307 306 305 304 303 302 301 301 300 300 300 300 300 300 301 301 301 301 300 300 299 298 298 298 298 298 298 298 297 296 295 293 292 291 291
314 315 315 315 317 318 317 319 320 320 320 322 321 313 309 310 313 316 320 322 316 311 310 313 314 313 313 311 310 313 315 316 315 312 310 310 311 311 311 311 311 311 311 310 309 308 307 307 307 307 306 305 305 304 303 302 301 300 300 299 300 300 300 300 300 299 299 299 298 298 298 299 299 299 299 299 298 298 297 296 295 294 293 292 291 290
313 314 314 315 317 317 317 319 319 318 320 323 316 306 306 311 315 319 322 319 310 308 310 312 312 312 312 310 310 312 314 313 312 310 309 310 310 310 311 311 310 309 308 308 307 306 306 306 305 305 305 304 303 303 302 302 301 300 299 299 300 301 300 300 300 299 299 300 300 301 301 301 301 300 299 298 297 295 295 294 293 292 291 291 290 289
315 315 315 316 316 317 318 319 319 319 319 317 309 304 306 315 320 318 316 311 308 307 309 311 310 310 310 309 310 311 312 311 310 310 309 309 309 308 309 308 308 308 307 307 307 306 306 305 305 304 304 304 303 303 303 302 302 301 301 301 301 301 301 301 301 301 301 301 302 302 301 301 300 299 297 296 294 293 293 292 291 291 290 290 289 289
316 316 316 315 316 317 317 317 319 320 315 309 307 307 310 315 317 312 307 306 307 308 309 309 309 309 309 309 309 309 309 309 309 309 308 308 307 307 307 307 307 307 307 307 306 305 305 305 305 305 304 304 304 303 303 303 303 302 302 302 301 301 301 301 301 301 301 301 300 300 299 299 297 296 295 294 293 292 292 291 291 290 290 289 289 289
316 317 318 317 316 317 318 318 319 318 312 308 309 312 312 311 309 306 305 305 305 306 307 308 308 308 308 308 308 308 308 307 307 307 307 307 306 306 306 306 306 306 306 306 306 305 305 306 305 305 305 304 303 303 303 303 302 302 302 301 300 300 300 300 300 300 300 299 299 298 297 296 295 294 294 293 293 292 292 291 291 290 290 290 289 289
315 314 314 317 316 315 316 315 312 309 306 306 307 308 308 308 306 305 307 306 305 305 306 307 307 307 307 307 307 307 307 306 306 307 307 306 305 306 306 306 305 306 306 306 305 305 305 305 305 305 304 303 302 302 301 301 300 300 300 299 299 299 299 299 299 298 298 298 297 296 296 295 295 294 294 293 293 293 292 292 292 292 291 291 291 291
309 305 309 315 316 313 311 308 305 304 304 304 304 304 304 306 305 305 306 306 305 305 305 305 306 306 306 306 306 306 306 306 306 307 306 306 305 306 306 305 305 305 305 305 304 304 303 304 304 303 303 302 301 301 300 299 298 298 298 298 298 298 297 297 297 297 296 296 295 295 295 294 294 294 293 293 293 292 292 292 292 292 292 291 291 291
307 304 308 313 315 315 314 309 306 305 304 303 303 302 302 304 305 305 305 305 305 305 305 304 304 304 305 305 305 305 305 305 305 306 306 305 305 305 305 305 304 304 304 304 304 303 303 303 302 302 302 301 300 299 298 298 297 297 297 296 296 296 295 295 295 294 294 294 294 293 293 292 292 292 291 291 291 291 290 290 290 290 290 290 290 290
309 307 309 313 313 313 312 306 302 301 301 302 303 302 302 304 305 305 305 305 304 304 303 303 303 303 304 305 304 304 304 304 305 305 305 305 305 305 304 304 304 304 303 303 302 301 301 300 300 300 299 299 298 297 297 296 296 295 295 294 294 294 293 293 293 293 292 292 292 291 291 291 290 290 290 290 290 290 290 290 290 290 290 290 289 289
308 308 309 312 311 311 309 304 300 302 304 303 302 302 303 304 305 305 305 304 303 302 302 301 302 302 302 303 304 304 304 304 304 304 303 303 303 303 304 304 303 302 301 300 299 298 298 297 297 297 297 297 296 296 295 295 294 294 293 292 292 292 292 292 291 291 291 291 291 291 290 290 290 290 290 290 290 290 290 290 290 290 290 290 290 289
307 310 309 309 311 312 311 307 304 307 310 306 303 303 303 303 304 305 304 304 303 301 300 300 300 300 300 301 303 303 303 303 303 302 301 301 301 301 302 302 301 299 298 297 297 296 296 296 296 296 296 296 295 295 294 293 293 292 292 291 291 291 291 291 291 291 291 291 291 290 290 290 290 290 290 290 290 290 290 290 290 290 290 289 289 289
307 310 309 310 312 312 309 305 305 308 310 307 306 305 303 303 304 305 305 305 303 300 299 300 300 299 299 299 300 301 300 300 300 299 299 298 298 298 300 299 298 297 297 296 296 296 296 296 295 295 295 295 294 293 293 292 292 291 291 291 291 291 291 291 291 291 291 291 291 291 291 291 290 290 290 290 290 290 290 290 290 290 289 289 289 289
Wind_Speed
3 3 2 5 7 8 8 8 6 5 6 6 5 3 3 4 4 5 5 6 2 4 6 8 8 11 12 10 14 15 12 18 23 25 28 31 32 32 34 35 36 36 34 31 31 32 32 34 34 33 31 30 28 27 27 26 24 23 21 21 21 22 23 24 26 26 26 26 27 27 27 27 25 24 23 21 20 19 16 15 16 15 13 12 13 14
3 3 7 9 9 8 7 6 6 5 5 5 5 2 2 3 5 7 4 5 0 3 6 5 6 11 12 11 14 13 8 15 25 26 29 34 35 36 37 38 39 37 36 35 34 33 34 35 36 35 33 32 31 29 28 27 25 23 22 22 22 22 24 25 27 26 24 24 26 28 28 26 25 24 22 20 17 16 16 15 14 13 13 14 13 15
2 4 12 10 6 5 2 4 6 3 3 4 3 2 3 3 4 7 5 4 1 4 5 5 4 10 12 10 13 15 14 21 30 30 32 35 34 36 38 40 40 39 39 39 38 36 36 36 37 38 36 34 32 30 29 27 25 24 23 23 23 23 25 26 27 29 27 27 28 26 26 25 25 25 22 19 16 17 17 16 15 14 16 17 15 15
2 6 11 8 10 7 3 4 7 3 1 2 3 3 3 4 2 4 4 4 1 1 3 5 5 8 10 9 11 20 23 25 31 31 34 36 36 39 39 38 39 40 41 41 41 39 38 37 38 39 39 37 35 33 31 29 27 27 25 24 24 24 26 27 28 30 30 30 28 25 25 25 26 24 20 17 18 19 18 16 16 17 17 17 16 15
6 6 3 7 10 8 5 4 6 4 3 4 5 6 5 5 6 6 4 4 3 3 3 4 7 7 7 8 9 13 13 18 27 28 31 38 41 41 40 38 39 40 40 41 41 41 39 40 39 40 40 39 38 36 34 31 29 28 26 25 25 24 26 28 29 28 28 28 28 27 27 27 26 24 20 20 22 22 19 18 19 19 18 18 17 16
8 5 4 8 5 6 7 4 5 7 4 4 5 9 10 8 7 5 3 5 4 5 4 3 4 6 4 6 8 7 4 9 16 17 25 36 38 37 38 39 41 39 39 39 39 39 39 40 40 40 41 41 40 39 35 32 30 28 26 25 26 25 27 28 28 27 26 27 27 27 29 29 27 25 23 24 24 23 20 20 21 21 20 19 18 17
5 4 6 7 5 6 6 4 6 7 5 2 5 9 11 8 5 4 2 2 1 4 3 3 1 6 7 6 8 7 6 10 11 10 20 31 31 31 34 36 37 36 37 37 37 38 38 39 41 42 42 42 42 40 36 33 31 28 26 26 27 26 26 27 27 26 26 27 27 28 29 29 27 25 25 26 24 23 21 22 23 22 21 20 19 18
4 5 4 6 5 6 5 4 6 8 8 3 5 5 7 7 6 5 5 3 3 3 4 2 3 4 8 7 6 6 7 10 12 12 18 26 31 32 34 35 35 34 34 35 36 37 37 38 40 41 41 41 42 40 37 34 32 29 27 27 27 26 26 27 29 28 28 29 30 30 30 29 27 25 25 25 25 24 23 24 25 22 21 21 20 20
3 7 8 8 5 4 6 5 7 11 6 5 3 6 6 6 5 4 5 3 1 3 5 2 3 3 7 6 3 2 4 9 13 15 15 21 28 30 29 28 28 28 29 30 33 35 35 36 37 39 40 40 40 40 37 34 32 29 27 27 28 27 26 28 30 31 31 30 29 29 27 26 26 26 25 25 25 24 24 26 25 23 23 23 23 23
1 4 7 8 6 6 5 2 7 11 5 4 6 7 6 5 5 5 4 3 3 2 7 6 5 3 7 5 1 1 3 8 12 12 11 17 23 21 19 18 17 18 19 22 26 30 32 33 34 37 39 39 39 39 36 34 32 29 27 28 29 28 28 28 29 31 32 29 27 27 26 26 28 28 27 26 26 25 25 26 25 24 26 27 27 26
2 0 2 4 4 5 5 3 2 6 7 9 7 6 6 6 5 4 3 4 2 4 8 8 9 6 5 4 4 3 4 7 8 8 8 13 16 13 12 12 11 11 12 15 19 24 28 31 33 36 37 38 39 38 36 34 32 30 29 30 30 29 30 30 30 32 32 29 29 29 27 29 31 30 29 29 28 27 28 28 27 29 30 29 28 27
4 0 1 2 4 6 8 5 4 3 7 8 4 5 4 4 4 4 4 4 1 6 5 4 5 7 7 6 4 5 6 6 7 7 7 9 12 12 10 10 11 12 13 15 17 21 25 29 32 35 36 38 39 38 37 35 34 32 31 32 32 31 32 30 30 31 30 29 31 31 29 31 32 31 31 29 29 31 31 31 32 33 32 30 29 27
2 4 3 1 4 7 6 4 4 3 2 4 4 6 4 2 3 3 3 1 3 7 3 1 2 3 8 8 7 11 12 11 10 10 12 13 17 18 15 15 18 20 21 20 19 21 24 27 30 33 35 38 39 39 38 36 35 34 33 34 34 33 33 30 29 30 30 31 33 33 32 33 32 31 30 29 30 32 33 34 36 36 34 32 31 28
3 6 3 1 3 8 9 6 3 1 3 5 5 6 5 2 1 3 3 2 4 5 3 2 2 3 6 5 10 16 18 18 16 16 20 21 22 24 24 26 28 27 26 23 21 22 24 26 28 31 34 37 40 40 39 38 36 35 35 36 35 35 33 30 30 31 33 33 34 33 33 32 30 29 29 29 31 33 35 36 36 34 32 31 29 27
5 6 5 6 4 10 12 8 6 5 5 5 3 6 5 5 5 4 4 3 4 3 3 2 2 4 4 3 8 12 15 19 20 22 24 26 27 26 27 29 29 26 23 22 22 22 24 25 27 30 33 36 39 40 40 39 38 37 37 37 37 36 34 32 31 33 34 35 35 34 32 30 28 28 28 29 31 34 36 36 35 32 30 28 26 25
5 7 6 3 2 11 12 6 6 8 3 2 2 4 3 6 5 2 3 5 2 2 4 3 4 5 4 6 9 10 12 15 17 19 22 26 25 21 24 27 26 23 20 20 22 23 24 25 27 29 32 35 38 40 41 40 39 38 38 38 38 36 34 34 33 33 34 35 35 34 32 29 28 28 29 30 33 36 36 35 33 30 29 27 26 25
3 5 5 2 1 4 6 4 5 4 4 2 3 4 4 4 6 2 2 1 3 2 4 3 5 5 3 8 10 8 12 12 11 14 19 23 20 18 24 29 28 25 20 18 20 22 23 25 27 29 31 34 37 40 41 40 39 39 38 39 38 37 35 35 35 34 34 34 33 32 31 30 30 29 30 32 35 37 36 34 32 30 29 28 26 25
5 3 4 1 1 3 1 5 5 3 5 5 4 6 2 2 3 2 1 3 3 3 5 3 6 5 2 6 5 1 8 12 11 12 16 19 19 20 26 27 27 25 21 18 18 20 23 25 26 28 29 32 35 38 39 39 38 38 39 39 38 37 37 37 36 35 34 34 33 32 31 31 31 31 31 33 36 37 36 35 33 32 30 29 27 26
5 2 4 1 2 3 3 4 3 4 3 4 4 5 4 2 1 2 2 1 1 3 5 3 5 5 5 6 3 2 8 10 11 10 9 12 17 20 22 22 23 23 20 18 17 19 22 24 26 27 28 30 33 36 38 38 38 39 39 39 38 37 36 36 36 36 36 35 33 32 31 32 32 33 34 36 38 38 37 35 34 33 31 29 28 28
3 3 3 1 1 1 2 1 4 2 2 4 3 3 2 2 4 3 3 3 3 2 4 4 3 4 7 7 7 10 11 10 9 6 5 11 16 17 17 18 20 20 19 19 17 17 20 23 25 26 25 27 30 34 36 37 38 39 39 40 39 37 36 36 37 37 37 36 34 32 32 33 35 36 37 38 39 39 37 35 34 33 32 30 30 29
2 4 4 2 2 1 2 4 8 10 7 4 4 5 3 1 2 1 1 2 4 3 2 3 6 7 5 5 10 13 12 10 9 6 7 12 13 12 14 17 19 18 18 19 17 16 19 22 24 24 24 25 28 32 35 36 38 38 39 40 40 38 38 38 39 38 37 35 34 34 35 36 38 38 39 40 40 39 37 35 34 33 32 32 31 30
3 4 4 2 2 4 5 4 5 9 8 7 7 8 9 7 4 2 3 2 2 2 4 3 8 10 5 5 8 9 9 9 9 9 8 10 10 10 13 17 19 18 18 18 16 14 17 20 23 23 23 25 28 32 35 36 37 38 39 40 40 40 39 39 39 39 37 35 35 35 36 37 39 40 41 41 41 40 38 36 35 34 34 33 32 31
5 3 4 3 4 6 5 3 2 4 3 2 4 5 7 6 6 6 5 4 2 2 2 3 5 9 2 4 6 6 6 7 10 13 11 10 10 10 13 18 20 19 18 18 16 13 15 18 21 22 23 26 28 31 34 35 37 38 39 40 41 41 40 39 39 38 37 36 36 36 36 38 40 41 42 42 42 41 39 37 37 36 35 34 33 32
4 3 3 2 3 3 4 5 2 1 2 1 3 3 6 7 7 6 4 4 4 5 3 3 6 8 1 0 3 3 5 5 8 14 14 12 11 10 14 19 21 20 19 19 18 15 14 16 19 22 24 26 28 31 33 35 36 37 38 40 42 43 42 40 39 39 38 38 37 36 37 38 40 41 43 44 43 42 40 39 38 37 36 35 34 32
7 4 4 3 1 3 4 4 3 2 3 4 3 4 8 11 8 3 1 2 2 7 9 5 9 7 1 4 3 3 4 6 9 14 14 12 12 12 15 18 20 20 20 21 20 18 17 17 19 22 25 27 28 30 33 34 36 37 38 40 42 43 43 41 40 40 39 39 39 38 38 39 41 43 44 45 44 43 41 40 39 38 37 36 35 33
10 5 7 7 6 7 7 6 6 4 3 2 4 7 9 11 12 7 2 3 6 7 9 8 12 6 2 5 4 4 4 5 10 13 11 11 15 15 16 18 19 19 21 22 23 21 20 19 19 21 24 27 29 30 32 34 36 37 39 40 42 43 43 42 42 42 41 41 40 39 39 40 42 44 45 46 45 44 42 41 40 40 39 37 36 34
4 3 10 12 11 13 14 9 5 9 7 7 10 13 12 12 14 10 5 7 7 3 5 13 15 10 7 4 4 5 5 6 9 9 7 13 19 20 19 21 21 21 23 24 24 23 22 22 22 23 24 26 29 30 32 33 35 37 39 41 42 42 43 43 43 43 43 42 42 41 41 42 43 44 45 46 46 44 43 43 41 40 39 38 37 35
2 3 12 15 17 20 19 12 9 13 14 16 16 16 15 15 13 12 13 12 6 4 11 14 10 13 17 9 7 9 7 6 7 9 13 20 25 25 25 25 24 24 25 25 26 27 26 24 24 25 26 27 28 30 32 33 35 37 39 40 41 42 42 44 45 45 44 44 43 43 42 42 43 43 45 47 47 46 44 43 42 40 39 38 38 37
2 5 12 14 18 22 20 12 12 14 14 15 17 18 18 18 17 19 22 17 9 8 18 12 10 14 21 11 11 12 10 11 15 20 25 27 28 29 28 27 27 28 28 27 28 29 28 27 27 28 29 28 28 30 32 34 36 38 40 41 40 41 42 44 45 46 45 45 45 44 43 42 43 44 45 47 48 47 45 43 42 41 40 40 39 38
3 5 9 13 16 20 20 12 11 13 11 10 15 18 18 20 23 25 25 20 14 15 21 15 9 17 18 9 10 12 15 21 24 24 26 26 28 31 31 31 32 32 31 30 31 32 31 30 30 30 30 30 30 30 31 35 38 39 41 42 42 41 42 44 46 46 46 47 46 45 44 43 44 44 46 48 48 47 46 44 43 42 42 41 40 39
5 5 4 7 9 14 18 11 10 12 11 9 11 13 17 21 24 24 21 15 13 15 20 18 15 19 13 5 7 13 17 20 18 19 24 27 29 30 31 33 34 33 33 32 33 34 33 33 33 33 33 32 32 33 32 34 38 40 42 42 42 42 41 43 45 45 46 47 46 45 44 44 45 45 45 47 48 48 46 45 44 43 43 43 41 40
5 4 1 3 5 12 16 11 9 8 6 6 9 13 20 22 18 16 14 12 14 16 19 16 15 18 9 4 6 11 13 14 15 18 25 29 30 31 31 34 34 34 34 34 34 35 34 35 36 36 34 32 33 35 33 33 36 40 43 43 42 41 41 43 45 45 46 46 45 45 45 45 45 44 44 46 48 48 46 45 44 44 44 44 43 41
5 5 3 4 7 12 11 6 8 6 2 6 13 19 23 19 11 9 11 16 18 16 14 13 15 19 12 6 7 8 8 11 16 23 28 31 32 32 32 33 34 35 36 35 35 34 34 35 36 35 34 33 34 35 34 33 35 38 42 43 42 42 42 43 44 45 45 45 45 46 45 44 44 44 44 45 47 47 45 45 45 45 45 45 44 43
5 7 6 5 7 11 6 6 7 5 8 11 12 15 19 16 13 13 16 19 17 14 13 14 16 19 15 10 10 10 12 18 25 33 35 31 29 29 29 33 35 36 36 35 33 32 31 32 33 33 33 34 34 34 33 33 34 35 40 42 41 42 42 42 43 44 44 45 45 45 44 43 43 42 42 43 44 45 45 44 44 45 46 46 45 43
5 7 5 3 4 6 4 6 4 8 12 9 4 4 10 13 18 19 19 17 15 15 16 18 21 22 19 17 17 18 22 27 32 36 31 24 24 27 30 35 37 36 36 35 33 32 31 31 32 31 32 34 34 33 33 32 32 34 38 39 39 41 41 41 42 43 43 44 43 43 42 41 41 41 41 41 42 43 44 44 45 46 46 46 44 43
7 7 4 2 3 2 3 6 9 7 3 5 5 3 3 5 10 12 12 14 16 17 18 21 24 24 21 23 27 28 27 25 28 32 28 24 30 35 36 39 40 39 39 39 37 34 31 29 30 30 32 33 31 30 29 29 31 33 35 36 37 38 38 39 40 40 41 41 41 40 40 40 39 39 38 39 40 42 43 44 45 45 45 44 43 43
10 8 5 4 5 4 5 8 7 5 6 8 9 5 5 7 10 11 9 13 16 19 19 19 21 22 20 25 33 32 23 16 19 25 28 31 36 36 34 36 36 36 37 37 36 33 30 29 30 30 30 29 26 25 24 26 28 30 32 33 34 33 34 36 36 36 36 37 37 37 37 37 37 37 37 38 40 41 43 43 43 43 42 43 43 44
9 8 8 7 6 6 7 7 5 4 9 13 8 5 9 13 14 13 9 11 13 18 22 19 17 20 19 22 28 23 12 8 11 16 20 22 24 22 21 23 23 23 26 29 30 30 29 28 28 27 25 22 19 19 19 20 23 25 26 29 29 28 29 30 29 29 30 30 31 32 32 33 33 34 34 34 35 36 38 39 40 41 42 43 44 44
11 8 8 7 5 5 7 7 6 6 10 11 6 5 12 20 17 12 6 10 8 11 21 20 16 19 20 21 20 10 2 5 11 13 13 12 12 13 14 15 15 16 19 22 23 24 22 21 21 19 16 14 12 12 13 14 16 18 20 22 22 21 21 22 22 21 22 22 24 25 26 27 27 27 28 29 30 31 33 36 38 40 41 42 42 42
13 9 8 8 8 8 8 8 6 5 7 7 5 4 10 20 20 12 5 10 5 9 22 25 20 23 26 23 14 6 6 10 12 12 12 10 10 13 14 14 14 15 16 16 16 15 14 12 10 9 7 6 6 6 7 8 10 12 14 16 15 13 12 13 13 13 13 14 15 16 17 18 20 21 22 24 25 26 29 32 35 37 39 39 40 41
9 8 8 9 10 11 12 10 5 4 6 6 6 10 16 18 14 8 8 8 7 12 21 27 26 24 23 19 13 12 17 23 20 16 15 13 13 13 13 13 13 12 10 9 7 6 5 5 5 5 5 5 6 6 7 8 8 9 11 11 10 8 8 7 7 7 8 8 10 11 13 15 16 17 18 19 20 22 25 28 30 32 34 35 36 38
8 6 6 9 10 10 10 9 6 6 6 7 9 13 18 13 6 8 6 6 12 15 17 22 23 19 16 16 18 20 22 22 19 18 16 13 10 8 8 8 7 5 5 5 6 7 8 10 11 12 13 13 12 12 12 12 12 11 10 10 10 10 9 9 8 8 8 9 10 12 14 16 17 17 17 17 19 20 22 23 25 27 28 30 32 33
8 7 6 7 7 6 6 7 8 7 5 16 18 9 7 6 3 6 8 7 10 13 12 15 17 14 14 16 18 20 19 16 14 13 11 7 5 4 4 4 4 6 7 9 11 11 13 15 17 17 17 17 16 15 14 14 13 12 12 12 12 11 10 10 10 9 9 10 12 14 16 16 16 15 15 16 16 17 18 19 21 23 24 25 27 28
7 8 7 6 7 7 7 8 7 3 8 24 21 6 9 9 3 7 10 8 10 11 10 11 11 11 11 10 10 13 14 12 10 8 7 5 5 5 6 7 8 10 11 13 14 15 15 15 16 17 16 16 15 14 13 12 10 10 10 10 10 10 9 9 9 9 10 12 14 15 15 14 14 14 14 14 14 15 16 17 18 20 21 22 23 24
4 4 4 4 5 5 4 4 2 0 11 21 11 2 12 15 6 7 12 13 13 13 10 10 10 9 9 7 6 8 9 8 8 8 7 7 7 8 8 9 10 11 12 14 15 14 13 12 13 15 15 15 14 12 11 10 8 8 9 9 9 8 8 8 9 10 12 13 14 14 14 13 13 14 13 13 14 14 15 15 16 17 18 19 20 21
1 1 1 2 2 2 1 1 1 0 9 15 6 3 12 16 11 11 14 14 14 13 11 11 9 8 9 9 8 9 9 9 9 8 8 9 9 10 11 11 13 13 13 14 14 14 13 12 12 13 12 12 12 12 11 11 11 10 10 10 10 10 10 11 12 12 13 13 13 13 13 12 12 12 11 11 11 11 12 12 13 14 15 16 17 18
2 2 1 1 3 4 3 3 3 3 9 14 9 6 12 15 14 14 14 14 14 12 11 11 9 8 10 10 9 10 10 10 10 10 10 11 11 12 13 14 14 14 13 13 13 13 12 10 10 10 10 10 12 13 13 14 14 14 13 13 13 13 13 13 13 13 12 12 12 12 11 10 10 9 9 9 8 8 9 10 10 12 13 14 15 17
2 4 3 1 3 4 2 2 3 2 7 13 13 11 14 16 16 16 16 15 14 12 12 11 10 10 11 11 11 12 12 12 12 10 11 12 12 13 14 14 14 14 14 13 13 12 11 10 10 10 10 11 14 15 16 16 16 16 16 15 14 13 12 12 12 11 11 11 11 11 10 9 9 8 7 7 7 8 9 10 11 12 13 14 16 17
4 5 4 1 1 1 2 2 2 1 5 13 17 17 17 18 17 17 17 16 14 14 13 12 10 11 11 11 12 13 13 13 12 10 11 13 14 15 16 16 15 15 15 15 14 13 12 12 12 12 13 14 16 17 17 16 16 15 15 13 12 11 10 10 10 10 10 11 10 9 9 8 7 7 7 8 9 10 12 13 15 16 17 18 19 21
5 4 3 3 2 5 5 6 9 4 1 9 19 22 21 19 18 18 17 16 15 14 14 13 13 14 13 12 13 13 12 13 13 12 11 12 13 15 17 17 17 17 16 16 16 16 16 15 15 15 16 17 17 17 16 15 15 14 13 12 11 10 9 9 8 8 8 8 8 8 8 8 9 10 10 12 13 14 15 17 18 19 20 21 22 23
7 7 7 6 4 5 5 12 18 10 0 4 18 26 26 23 20 18 17 16 15 15 14 14 15 16 15 14 14 13 12 12 13 12 11 12 12 14 16 17 17 17 17 17 18 18 18 17 16 17 17 17 17 16 15 14 13 12 10 9 9 8 7 7 7 7 7 8 8 9 10 10 11 12 12 13 14 15 16 17 18 19 20 20 21 22
Wind_Direction
127 123 169 210 208 201 206 195 178 158 125 114 129 134 169 193 267 260 257 289 194 165 248 233 233 256 259 262 266 263 239 230 244 249 250 249 248 247 246 248 248 248 252 252 247 243 240 236 232 230 229 229 229 228 229 231 231 231 230 232 229 225 221 216 215 217 218 214 213 213 214 215 220 228 233 235 232 224 217 213 210 211 209 209 205 193
113 159 225 224 206 197 206 184 136 111 100 92 118 164 254 205 253 258 250 307 1 169 265 262 249 262 260 260 266 260 223 229 240 242 248 251 250 249 247 249 250 251 252 250 248 244 239 236 232 231 230 229 230 229 229 230 231 231 230 230 228 226 223 213 209 215 220 216 213 214 218 222 222 222 229 236 229 211 205 204 205 204 195 200 203 190
78 224 243 227 169 133 121 133 135 136 106 89 112 147 264 246 269 277 280 321 24 175 267 298 277 266 263 261 264 251 231 241 246 244 250 254 253 252 250 250 251 251 250 248 248 246 242 238 233 231 230 230 230 229 230 230 229 230 228 228 226 222 221 215 207 208 212 213 216 224 227 221 218 223 232 234 216 199 200 203 201 196 190 197 202 192
155 247 252 206 152 132 98 107 124 129 144 162 154 154 241 251 261 277 289 322 0 182 273 309 298 276 269 264 260 254 244 248 255 253 256 257 256 256 256 256 255 252 251 250 248 246 243 240 235 232 231 230 230 229 229 229 229 228 225 225 225 220 215 214 212 210 212 217 222 227 226 221 224 230 230 217 200 197 202 202 195 191 189 193 197 193
213 255 250 151 156 162 144 119 129 148 235 239 192 183 221 233 217 232 286 328 342 346 1 345 307 282 270 263 258 262 254 253 258 256 257 258 257 258 259 258 257 255 254 252 250 247 244 242 240 236 232 230 230 230 231 230 229 229 226 222 223 222 216 214 216 214 212 216 221 223 221 220 222 225 220 204 195 198 201 196 191 190 189 190 193 196
246 249 127 123 145 160 150 166 178 172 207 273 224 200 211 220 224 238 337 10 1 330 346 17 304 282 291 272 259 279 301 266 258 252 253 256 258 257 257 258 257 256 255 254 252 250 247 246 243 238 233 231 231 232 231 230 229 228 226 222 220 220 218 218 219 214 210 213 218 219 216 214 218 221 212 198 198 202 199 192 192 193 192 192 196 201
245 217 129 122 135 148 159 215 221 177 151 271 247 207 207 204 201 207 147 62 299 262 292 60 205 273 296 269 250 262 272 268 266 254 253 258 260 258 258 262 261 258 256 253 251 249 247 244 241 239 236 233 233 233 229 228 228 225 223 221 219 219 218 217 217 213 209 210 214 217 218 222 229 224 206 197 202 205 199 193 195 197 198 197 199 199
199 193 130 118 122 128 160 222 222 166 139 237 253 179 176 176 185 193 158 174 237 261 311 40 130 266 283 262 250 252 260 275 275 265 262 261 261 262 263 265 266 265 261 256 252 249 245 242 241 240 240 236 233 231 228 226 226 225 222 219 217 219 217 211 212 214 212 214 218 223 227 230 230 222 209 204 204 205 203 198 195 199 202 197 190 185
171 185 185 169 156 160 189 215 185 154 150 248 222 123 137 151 156 141 123 160 341 8 300 285 128 255 271 261 290 312 257 268 267 261 262 261 262 266 268 269 271 270 266 261 256 253 249 246 244 241 239 236 232 230 228 226 226 224 220 215 214 217 216 209 210 213 216 219 222 224 225 222 217 214 215 214 210 209 206 197 195 199 197 186 176 172
217 199 195 171 171 201 205 228 176 166 178 201 139 94 79 79 81 82 98 108 52 358 255 222 162 237 270 244 232 15 236 247 259 260 262 267 269 272 273 273 277 275 270 265 261 256 253 249 245 240 236 233 231 229 227 224 224 222 217 213 213 214 213 211 209 212 218 219 217 219 219 214 213 214 217 219 217 212 201 193 194 193 184 175 170 168
303 8 180 170 185 184 138 70 161 169 152 140 116 66 50 36 38 48 53 76 64 275 254 218 183 198 272 259 199 206 217 222 244 263 272 275 271 268 271 277 283 284 280 274 266 258 252 246 242 237 234 231 229 227 225 222 222 220 216 214 214 213 212 212 212 215 220 216 212 218 219 215 217 220 221 221 217 207 194 189 189 184 177 172 170 169
332 36 225 213 184 140 107 68 29 86 128 123 93 80 70 351 8 20 359 48 166 251 264 247 179 176 236 260 232 249 264 238 228 243 261 275 274 268 270 280 291 296 292 282 270 258 248 242 238 234 231 229 227 225 223 221 221 219 216 214 214 214 214 216 217 217 216 210 209 216 218 219 224 228 227 222 213 200 190 187 185 180 175 173 172 172
283 235 278 316 191 165 124 82 37 27 96 107 99 111 102 330 355 344 305 85 232 250 260 255 133 186 237 255 263 264 268 253 232 231 241 256 269 272 272 278 288 292 289 282 270 259 250 244 239 234 229 226 224 224 223 221 220 218 216 215 215 216 217 219 217 213 210 209 211 216 220 225 229 229 225 218 209 198 190 186 184 181 179 176 175 175
257 291 294 106 231 196 169 153 159 203 180 160 147 141 140 147 180 271 267 269 265 265 266 206 178 253 266 265 249 245 251 253 250 251 254 258 264 270 275 278 283 285 285 280 268 258 253 248 243 236 231 226 224 223 222 221 220 219 217 216 217 217 218 219 216 211 211 213 216 221 226 229 227 222 217 212 206 198 190 187 186 185 182 180 179 177
216 282 211 181 196 187 186 189 165 138 159 186 153 139 158 161 169 215 219 226 254 280 292 248 189 203 212 257 251 247 263 266 260 258 261 265 267 271 277 278 279 279 279 277 269 261 255 250 245 239 233 228 224 222 221 221 221 220 220 219 218 218 217 217 215 213 213 216 219 222 226 225 221 216 213 210 205 198 191 188 188 187 185 184 183 181
204 266 235 211 165 171 183 185 130 108 133 227 110 121 187 184 166 195 203 182 187 303 294 232 222 218 210 273 274 266 275 271 263 263 262 263 266 271 275 276 277 276 272 270 267 264 257 250 244 240 235 230 225 222 221 221 221 222 223 221 220 220 218 216 216 216 216 218 221 221 221 219 216 213 211 206 202 197 192 189 190 190 188 187 186 185
176 276 282 344 34 178 183 164 133 137 170 159 137 176 208 172 145 152 272 54 80 272 267 202 239 285 310 282 273 259 264 269 271 269 262 261 266 271 273 276 278 277 273 269 267 264 258 252 245 240 236 232 227 223 222 223 224 225 226 224 221 219 217 216 216 218 218 219 222 221 218 217 214 210 206 202 198 196 193 191 192 192 191 190 190 189
163 253 299 102 188 272 60 105 74 50 121 128 185 201 159 77 97 118 253 353 41 256 272 226 236 271 278 270 297 279 250 262 266 261 262 269 272 270 271 277 281 280 278 271 265 261 257 253 248 243 237 234 230 227 226 225 226 227 227 226 223 220 218 216 215 217 219 220 222 222 218 215 211 205 202 200 198 196 195 193 193 193 193 192 192 193
158 210 304 57 187 282 29 102 75 10 68 125 175 173 123 125 200 121 160 228 194 254 282 278 248 240 207 224 276 226 223 241 251 252 262 269 265 265 271 281 285 285 283 274 265 261 259 256 252 246 239 235 231 228 227 227 227 227 227 227 226 224 221 218 216 216 219 222 223 223 218 213 208 202 199 199 199 199 197 196 195 195 196 195 195 196
148 192 261 327 263 294 21 150 186 208 27 56 95 133 110 142 172 160 161 170 169 232 278 302 293 243 215 201 200 214 217 215 222 230 240 248 253 261 274 286 289 290 290 284 273 265 263 260 256 250 242 237 232 229 227 228 228 228 228 227 226 224 221 219 218 217 220 222 222 221 217 211 206 200 198 200 200 201 199 198 197 196 198 199 198 198
123 202 230 316 334 180 194 218 192 180 170 146 152 171 182 119 106 164 196 135 140 175 226 289 286 260 229 192 193 208 217 211 204 199 222 244 251 263 282 292 294 296 296 291 282 271 265 261 257 251 243 237 232 230 229 228 230 230 229 228 227 225 222 219 218 219 221 222 221 219 215 209 204 200 199 201 202 203 201 200 200 199 200 201 201 200
183 198 180 157 215 203 219 247 206 191 188 179 186 191 186 170 138 165 238 214 142 180 184 205 274 268 230 186 198 205 209 209 210 208 218 242 252 268 290 296 296 300 300 295 289 278 268 261 257 251 243 237 231 229 229 229 230 230 229 228 227 227 225 221 218 219 221 222 221 220 215 209 205 201 200 202 203 204 203 202 202 202 203 203 203 202
162 114 141 178 217 217 238 284 226 205 191 152 207 203 178 170 157 165 214 217 160 231 188 127 275 276 242 172 199 214 219 211 211 212 217 237 250 269 293 296 295 299 300 296 293 283 271 263 258 252 244 239 235 231 230 230 230 230 229 228 227 227 226 222 220 220 222 222 222 221 216 211 207 204 202 203 205 205 204 204 204 205 206 205 205 204
135 116 163 232 309 306 307 328 358 121 125 174 238 180 164 193 191 173 194 181 169 218 176 113 266 268 314 310 228 245 263 245 220 213 215 235 250 268 290 294 294 295 294 293 292 286 274 263 255 250 243 239 237 233 230 230 231 230 229 228 227 227 227 223 220 220 222 223 224 223 219 213 210 207 205 205 207 206 206 206 207 207 207 207 206 205
172 184 163 153 305 325 334 323 297 241 191 206 218 184 191 201 192 174 81 101 214 217 167 164 252 246 261 313 334 10 306 280 253 230 218 233 251 265 285 291 292 292 291 289 288 285 277 269 261 254 247 242 239 235 232 231 230 229 229 228 227 226 226 223 221 221 222 223 225 225 221 216 213 210 208 208 209 208 208 208 209 209 208 208 207 207
174 190 169 171 211 223 224 229 225 202 173 189 204 195 203 198 189 198 199 181 234 215 160 194 242 245 356 314 318 348 321 289 267 246 226 240 259 268 279 282 281 284 286 285 285 282 278 277 272 264 255 248 243 238 235 232 230 229 228 229 228 227 225 224 222 221 222 223 224 225 223 219 216 214 212 210 210 210 210 210 210 210 210 209 209 209
154 198 187 190 209 221 230 229 155 127 148 202 210 197 200 201 195 196 206 215 217 171 182 221 233 252 277 271 268 281 266 256 265 260 247 261 269 272 274 273 272 276 279 280 281 280 279 279 277 272 264 255 248 242 238 235 232 230 229 228 228 227 226 225 223 222 222 223 224 226 225 222 219 217 215 213 212 213 212 212 212 212 212 211 211 212
102 204 198 205 215 225 236 224 158 148 175 201 204 195 199 201 190 195 216 217 164 137 243 235 206 244 256 232 224 252 248 246 261 255 253 261 266 268 268 268 270 273 275 276 278 278 278 277 278 277 272 264 255 247 241 237 235 232 231 231 230 228 227 225 224 223 223 223 224 226 226 224 222 219 218 216 214 215 215 214 214 214 214 214 214 215
133 212 207 213 221 230 236 216 172 176 188 196 199 196 197 195 190 203 218 216 165 186 247 239 161 222 249 231 215 229 223 231 244 248 253 258 259 260 261 262 266 270 271 272 276 277 276 277 279 279 275 268 261 254 246 240 236 234 233 232 231 230 229 226 224 224 224 224 225 226 226 226 223 221 220 218 216 216 216 216 216 216 217 217 217 218
174 216 210 211 223 235 237 210 176 191 193 194 202 198 194 195 199 208 216 216 203 217 247 250 213 238 252 233 217 223 222 234 244 250 254 255 253 253 254 257 261 264 266 270 274 275 275 277 279 277 272 269 266 262 255 246 240 236 234 233 231 230 229 227 225 224 224 225 225 226 227 226 224 222 221 219 217 217 218 217 218 218 219 220 220 220
193 218 206 195 217 240 240 217 182 194 194 195 209 206 202 203 206 212 215 214 214 232 249 254 257 260 255 204 220 234 231 238 246 249 250 251 250 249 249 252 256 259 262 267 271 273 274 275 277 275 272 274 275 270 263 256 247 240 236 235 233 231 229 227 226 225 225 225 226 227 228 227 224 223 222 221 218 218 219 219 219 220 221 222 222 222
190 216 114 132 206 240 242 223 191 193 199 213 222 215 212 212 209 208 210 206 204 222 239 246 253 257 246 155 216 233 228 237 244 243 247 252 252 250 249 252 255 258 261 265 269 272 274 276 278 277 276 278 279 275 270 262 253 246 240 237 234 232 230 227 226 225 226 226 226 227 228 227 225 224 224 222 220 220 221 221 222 223 224 225 225 225
171 196 189 162 212 243 246 205 162 152 169 235 232 221 217 215 200 188 209 216 209 209 224 232 240 249 246 218 229 232 217 231 242 244 248 253 255 256 255 257 260 263 264 267 268 270 274 277 279 280 280 280 280 278 275 266 259 254 247 239 234 231 229 227 226 225 226 226 227 228 228 228 226 225 225 224 222 222 222 223 225 226 227 228 228 228
178 201 203 180 214 240 227 132 128 167 208 227 232 224 219 207 187 194 215 220 212 208 222 234 243 252 255 243 236 238 236 241 250 253 254 255 258 262 264 265 267 269 270 270 270 271 274 277 277 278 280 281 279 277 272 265 261 258 250 241 235 232 229 227 226 226 226 226 227 228 228 228 228 227 227 226 225 225 225 226 228 230 230 231 231 231
181 201 203 180 213 229 168 123 172 215 219 236 265 237 220 200 189 204 222 223 212 212 226 240 248 252 254 252 249 249 250 254 258 260 259 257 259 263 265 267 269 272 274 274 274 275 276 276 276 276 277 278 277 273 270 265 260 256 249 242 236 233 230 227 226 226 226 227 227 228 229 229 229 230 230 229 228 228 229 230 232 233 233 233 234 236
180 189 201 190 188 193 151 183 219 233 258 287 291 262 216 177 173 198 231 238 223 215 220 231 242 248 253 257 258 257 259 265 269 268 266 265 266 266 266 269 273 275 277 278 278 278 278 274 273 273 273 275 276 273 270 265 258 252 247 241 236 233 231 228 227 227 227 228 229 230 231 232 232 233 233 233 233 232 233 234 235 236 235 236 238 240
186 186 198 205 200 202 201 212 236 300 316 272 252 218 168 152 158 176 215 241 229 218 219 226 237 247 251 255 257 259 265 281 284 276 272 272 273 273 273 276 279 279 278 279 278 276 273 270 268 270 272 274 274 271 266 260 254 249 245 239 235 233 232 230 229 230 230 231 232 234 235 236 236 236 236 236 236 236 237 238 239 240 240 240 241 242
192 189 191 201 209 204 211 229 238 249 251 246 236 186 170 174 169 165 194 245 241 219 214 217 231 242 244 250 254 257 271 291 281 275 276 277 279 282 284 283 282 281 278 276 274 272 270 269 269 270 271 270 267 263 259 256 253 249 244 239 234 234 234 234 234 234 235 236 238 239 240 240 240 240 241 242 243 244 245 245 245 245 244 243 244 245
208 205 198 205 210 194 208 231 219 215 245 246 223 181 178 175 161 140 181 246 252 205 196 200 220 234 236 242 244 232 198 258 264 271 276 282 288 291 293 291 284 280 276 274 275 275 273 270 266 262 259 255 252 252 252 251 249 243 239 234 231 233 234 234 235 235 236 239 241 242 243 243 244 246 247 249 250 251 252 251 250 248 246 246 246 247
212 214 212 215 217 208 212 227 224 229 252 237 207 196 173 160 145 127 198 243 236 172 181 188 206 227 231 233 226 174 175 228 250 268 271 282 298 295 294 294 286 280 279 279 280 278 269 261 252 244 238 228 225 230 231 231 231 228 225 222 217 216 217 221 225 227 229 234 237 240 243 245 246 248 248 250 252 254 256 255 253 251 249 249 249 250
203 207 208 215 221 217 216 226 241 249 237 214 186 168 151 141 141 168 218 219 172 164 180 189 203 220 224 217 198 193 219 231 241 263 278 292 298 288 283 284 281 280 278 270 262 250 225 194 167 150 141 142 148 154 161 168 178 189 196 194 183 170 168 179 191 197 205 215 220 226 232 234 237 239 241 245 249 251 253 253 252 252 251 251 252 252
192 197 202 211 218 217 220 225 235 249 227 169 146 155 153 147 183 214 196 149 149 162 180 194 206 216 217 209 207 215 230 238 247 265 279 287 283 269 266 271 269 257 231 192 161 149 145 136 129 128 126 125 128 133 136 137 141 148 152 147 137 133 139 150 162 174 187 200 209 215 221 224 226 229 231 236 240 242 245 247 249 250 252 253 254 255
184 183 194 206 203 204 225 216 216 252 204 139 130 141 182 191 196 159 132 121 148 161 175 193 206 214 218 222 226 228 235 243 250 259 263 258 242 224 214 206 182 167 154 139 130 129 130 127 124 124 124 122 123 125 125 125 127 128 127 126 130 139 151 161 171 185 196 206 213 215 217 219 222 224 228 231 235 239 242 245 247 250 251 252 254 256
186 188 197 205 195 193 214 209 205 254 164 151 145 163 208 201 160 127 140 148 154 158 165 178 190 202 210 220 227 225 227 228 228 231 226 199 175 169 170 162 151 144 135 128 126 124 125 127 127 125 125 123 122 122 120 120 121 124 128 136 146 157 167 176 188 201 207 211 213 212 211 212 214 217 221 224 229 234 237 239 242 245 247 249 251 253
211 206 189 189 199 200 212 210 207 49 170 169 162 151 182 186 179 148 157 160 157 161 164 163 169 179 179 177 184 192 196 197 198 200 191 174 165 164 163 154 145 139 134 131 128 125 128 133 131 129 128 126 125 126 126 126 130 138 145 152 161 171 180 188 195 201 202 202 202 201 202 203 206 210 213 217 222 227 230 234 238 240 244 246 248 251
287 263 137 141 202 239 273 164 105 56 183 181 174 119 165 177 173 156 157 158 156 157 158 157 162 167 163 159 162 170 176 182 188 187 179 173 170 166 160 153 147 142 141 141 138 135 138 139 135 135 135 133 136 141 142 144 149 154 161 167 171 175 179 181 183 184 185 188 190 192 195 198 201 205 208 213 219 225 229 235 240 243 247 250 253 255
295 201 143 95 175 194 223 198 165 181 194 191 189 169 167 171 168 160 158 157 155 156 160 161 162 163 162 159 160 167 172 172 174 176 174 173 173 167 161 157 154 152 152 153 149 146 147 149 148 149 149 151 154 155 155 158 157 157 161 163 164 167 169 169 172 176 179 183 186 189 192 194 197 202 207 212 219 228 234 241 248 251 255 258 260 262
218 161 149 222 199 180 206 207 177 194 209 204 202 191 177 172 169 164 162 160 158 158 159 159 159 163 165 164 163 168 170 168 170 174 173 172 173 171 166 164 163 161 159 159 158 154 154 158 160 161 163 164 160 157 158 159 156 153 155 157 158 162 166 168 173 177 180 183 185 185 188 191 195 200 209 218 228 238 246 252 257 260 262 265 265 266
132 146 166 180 180 240 292 207 176 327 262 225 215 201 186 178 173 168 165 163 162 161 160 159 158 159 163 166 169 174 178 177 176 178 177 175 173 173 172 171 170 167 163 161 160 154 153 158 161 160 160 158 155 154 155 154 152 152 155 157 161 163 166 171 175 177 179 182 184 186 191 198 207 217 227 237 245 250 254 257 260 262 263 265 266 267
132 165 180 111 149 244 253 177 169 173 251 223 215 205 192 184 178 171 167 166 165 165 165 164 160 156 158 163 168 172 179 180 175 173 176 174 170 171 173 172 169 167 161 158 155 149 148 152 153 151 152 152 150 152 153 153 154 155 156 158 159 158 159 165 168 172 179 186 193 201 209 219 227 234 239 244 249 252 256 260 263 265 266 268 269 270
182 180 176 163 188 229 195 167 178 190 198 211 210 204 195 189 185 178 173 171 169 168 171 173 170 164 162 163 163 165 171 175 171 168 171 171 166 167 169 168 166 164 159 155 152 147 146 147 147 148 150 150 150 153 154 154 155 156 155 158 159 159 163 171 177 185 194 200 208 215 221 226 232 238 243 248 253 257 261 264 268 270 272 273 273 274